SCP
0 0 0 0 0 0 0 0 0 0 0 0 0 0 0 0 0 0 0 0 0 0 0 0 0 0 0 0 0 0 0 0 0 0 0 0 0 0 0 0 0 0 0 0
0 0 0 0 0 0 0 0 0 0 0 0 0 0 0 0 0 0 0 0 0 0 0 0 0 0 0 0 0 0 0 0 0 0 0 0 0 0 0 0 0 0 0 0
0 0 0 0 0 0 0 0 -0 0 0 0 0 0 0 0 0 0 0 0 0 0 0 0 0 0 0 0 0 0 0 0 0 0 0 0 0 0 0 0 0 0 0 0
0 0 0 0 0 0 0 0 -0 0 0 0 0 0 0 0 0 0 0 0 0 0 0 0 0 0 0 0 0 0 0 0 0 0 0 0 0 0 0 0 0 0 0 0
0 0 0 0 0 0 0 0 0 0 0 0 0 0 0 0 0 0 0 0 0 0 0 0 0 0 0 0 0 0 0 0 0 0 0 0 0 0 0 0 0 0 0 0
0 0 0 0 0 0 0 0 0 0 0 0 0 0 0 0 0 0 0 -0 0 0 0 0 0 0 0 0 0 0 0 0 0 0 0 0 0 0 0 0 0 0 0 0
0 0 0 0 0 0 0 0 0 0 0 0 0 0 0 0 0 0 -0 -0 0 0 0 0 0 0 0 0 0 0 0 0 0 0 0 0 0 0 0 0 0 0 0 0
0 0 0 0 0 0 0 0 0 0 0 0 0 0 0 0 0 0 0 0 0 0 0 0 0 0 0 0 0 0 0 0 0 0 0 0 0 0 0 0 0 0 0 0
0 0 0 0 0 0 0 0 0 0 0 0 0 0 0 0 0 0 0 0 0 0 0 0 0 0 -0 0 0 0 0 0 0 0 0 0 0 0 0 0 0 0 0 0
0 0 0 0 0 0 0 0 0 0 0 0 0 0 0 0 0 0 0 0 0 0 0 0 0 0 0 0 0 0 0 0 0 0 0 0 0 0 0 0 0 0 0 0
0 0 0 0 0 0 0 0 0 0 0 0 0 0 0 0 0 0 0 0 0 0 0 0 0 0 0 0 0 0 0 0 0 0 0 0 0 0 0 0 0 0 0 0
0 0 0 0 0 0 0 0 0 0 0 0 0 0 0 0 0 0 0 0 0 0 0 0 0 0 0 0 0 0 0 0 0 0 0 0 0 0 0 0 0 0 0 0
0 0 0 0 0 0 0 0 0 0 0 0 0 0 0 0 0 0 0 0 0 0 0 0 0 0 0 0 0 0 0 0 0 0 0 0 0 0 0 0 0 0 0 0
0 0 0 0 0 0 0 0 0 0 0 0 0 0 -0 -0 0 0 0 0 0 0 0 0 0 0 0 0 0 0 0 0 0 0 0 0 0 0 0 0 0 0 0 0
0 0 0 0 0 0 0 0 0 0 0 0 0 0 0 0 0 0 0 0 0 0 0 0 0 0 0 0 0 0 0 0 0 0 0 0 0 0 0 0 0 0 0 0
0 0 0 0 0 0 0 0 0 0 0 0 0 0 0 0 0 0 0 0 0 0 0 0 0 0 0 0 0 0 0 0 0 0 0 0 0 0 0 0 0 0 0 0
0 0 0 0 0 0 0 0 0 0 0 0 0 0 -0 -0 0 0 0 0 0 0 0 0 0 0 0 0 0 0 0 0 0 0 0 0 0 0 0 0 0 0 0 0
0 0 0 0 0 0 0 0 0 0 0 0 0 0 -0 -0 0 0 0 0 0 0 0 0 0 0 0 0 0 0 0 0 0 0 0 0 0 0 0 0 0 0 0 0
0 0 0 0 0 0 0 0 0 0 0 0 0 0 0 0 0 0 0 0 0 0 0 0 0 0 0 0 0 0 0 0 0 0 0 0 0 0 0 0 0 0 0 0
0 0 0 0 0 0 0 0 0 0 0 0 0 0 0 0 0 0 0 0 0 -0 -0 -0 -0 0 0 0 0 0 0 0 0 0 0 0 0 0 0 0 0 0 0 0
0 0 0 0 0 0 0 0 0 0 0 0 0 0 0 0 0 0 0 0 0 0 -0 0 0 0 0 0 0 0 0 0 0 0 0 0 0 0 0 0 0 0 0 0
0 0 0 0 0 0 0 0 0 0 0 0 0 0 0 0 0 0 0 0 0 0 0 0 0 0 0 0 0 0 0 0 0 0 0 0 0 0 0 0 0 0 0 0
0 0 0 0 0 0 0 0 0 0 0 0 0 0 0 0 0 0 0 0 0 0 0 0 0 0 0 0 0 0 0 0 0 0 0 0 0 0 0 0 0 0 0 0
0 0 0 0 0 0 0 0 0 0 0 0 0 0 0 0 0 0 0 0 0 0 0 0 0 -0 -0 0 0 0 0 0 -0 -0 -0 0 0 0 0 0 0 0 0 0
0 0 0 0 0 0 0 0 0 0 0 0 0 0 0 0 0 0 0 0 0 0 0 0 0 0 -0 0 0 0 0 -0 -0 -0 -0 -0 0 0 0 0 0 0 0 0
0 0 0 0 0 0 0 0 0 0 0 0 0 0 0 0 0 0 0 0 0 0 0 0 0 0 0 0 0 0 0 -0 -0 -0 -0 0 0 0 0 0 0 0 0 0
Wind_Speed
2 3 2 5 4 2 3 3 3 5 3 2 5 9 10 6 3 5 5 5 5 5 5 3 2 2 2 2 1 1 2 2 1 1 1 2 2 2 1 1 2 2 2 3
3 2 4 2 2 1 1 2 3 4 2 2 5 10 8 5 4 5 5 5 5 5 4 3 3 2 2 2 2 2 2 2 2 2 2 2 2 1 2 1 1 2 2 2
5 3 2 3 2 2 2 3 3 3 3 2 4 8 4 4 3 3 4 4 4 4 5 4 3 3 3 3 3 3 3 3 3 2 1 1 1 0 1 1 1 1 2 3
3 2 2 2 2 3 4 3 3 1 1 3 2 6 7 4 5 4 5 4 4 4 4 4 4 3 4 4 3 3 3 2 2 2 2 3 2 2 3 2 2 2 2 3
3 2 1 2 3 3 3 0 1 1 2 2 1 3 9 3 5 6 5 5 5 4 4 4 4 4 4 3 2 2 2 2 2 2 3 4 3 2 1 1 2 2 2 2
2 1 2 3 1 3 2 3 3 3 3 3 4 4 9 4 5 6 5 5 5 5 4 4 4 3 3 3 2 1 2 2 1 1 2 4 4 3 2 2 2 2 1 2
2 1 1 1 2 2 3 4 3 4 2 6 2 4 10 6 4 4 5 5 5 4 4 4 4 3 3 3 2 2 2 3 2 2 2 3 4 5 5 4 3 3 2 2
2 4 3 1 3 4 3 4 5 4 5 5 2 6 8 4 3 4 3 3 4 4 4 4 5 4 3 3 3 2 2 3 3 3 3 3 3 3 3 4 3 3 3 2
4 4 1 0 0 5 4 2 3 4 1 3 6 6 9 3 4 5 5 5 5 5 5 5 5 5 4 4 4 3 3 3 3 3 3 3 3 3 3 3 2 2 2 2
5 3 3 1 2 2 3 5 4 3 2 4 5 5 5 5 5 5 6 6 5 5 5 5 5 5 4 4 4 3 3 3 3 2 2 2 2 2 3 3 2 2 2 2
3 3 2 1 3 4 3 3 3 3 3 3 4 7 5 5 3 4 5 5 5 5 5 5 5 5 5 4 4 3 3 3 2 2 2 2 2 1 2 3 3 2 2 2
3 4 2 3 2 1 3 5 5 4 4 3 3 9 3 2 3 3 4 5 5 4 4 4 4 4 5 5 5 4 4 3 2 2 2 1 1 1 1 2 2 3 3 2
4 4 1 2 2 1 1 2 3 3 3 4 4 9 3 2 4 4 4 5 5 4 4 4 4 4 4 5 5 5 4 3 2 2 1 1 1 1 1 1 2 2 3 2
4 3 5 8 6 4 4 4 4 5 4 5 8 9 9 7 7 7 5 5 5 4 4 4 4 4 4 4 4 5 4 3 2 1 1 1 1 2 2 1 1 2 2 2
4 3 3 4 3 3 5 7 7 8 8 9 9 9 12 8 7 6 5 4 4 4 4 4 4 4 4 4 4 4 4 4 2 1 1 1 1 1 1 2 1 1 2 2
3 3 1 3 2 2 5 8 9 9 8 9 8 12 9 7 4 5 5 4 5 5 5 5 5 4 4 4 4 4 4 4 2 1 1 0 1 1 1 1 1 1 2 2
3 4 2 3 2 2 7 9 10 7 7 8 11 11 4 5 6 6 6 5 6 6 6 5 5 5 4 4 4 4 4 4 3 2 2 1 1 1 1 1 1 1 1 2
5 4 2 1 1 7 7 2 6 7 7 8 7 6 5 6 7 6 5 5 6 5 5 5 4 4 4 3 3 3 3 3 2 2 2 1 0 0 0 1 1 1 1 1
4 6 3 2 2 8 7 3 4 5 7 7 9 8 6 4 4 5 5 5 5 5 5 4 4 3 3 3 3 2 2 2 2 3 3 2 1 1 1 1 1 1 1 1
3 4 4 3 3 8 6 2 2 2 6 4 6 6 4 1 2 6 4 3 4 4 3 3 3 2 2 2 2 1 2 2 2 3 3 2 1 1 1 1 1 1 1 1
2 2 4 4 5 10 6 2 3 4 7 2 4 5 4 5 7 5 4 4 3 3 3 2 1 1 2 2 1 1 2 3 3 3 2 2 2 1 1 1 1 0 1 0
7 6 5 5 5 11 3 5 7 7 3 2 3 4 5 5 5 4 4 4 3 3 3 2 1 2 2 2 1 2 3 3 2 2 2 3 2 2 1 1 0 0 1 1
7 8 7 9 9 4 5 6 5 2 3 4 3 4 4 4 5 4 4 4 3 3 3 2 1 2 2 2 2 3 3 2 2 2 2 2 2 1 1 1 1 1 1 1
4 2 3 5 8 6 6 5 4 4 5 5 4 4 3 5 5 5 4 4 3 3 3 2 1 2 3 3 3 3 3 2 2 2 2 2 1 1 1 1 1 1 2 2
5 5 4 7 7 5 6 6 6 5 5 5 4 4 4 5 5 5 5 4 4 3 3 2 2 3 4 3 3 3 2 2 2 2 2 2 1 1 1 1 1 2 2 3
6 8 8 9 7 6 7 5 5 5 6 6 5 5 4 4 6 5 5 4 3 3 3 2 3 3 4 3 3 3 2 1 1 2 2 1 1 1 1 1 2 2 2 4
Wind_Direction
47 82 187 210 196 185 171 188 245 260 274 274 257 270 277 277 273 277 280 279 278 273 278 278 271 273 270 279 291 267 260 241 201 218 206 195 218 214 189 192 178 162 159 148
63 236 224 177 174 147 148 213 258 286 314 268 277 276 273 258 242 242 254 266 270 286 306 308 295 281 271 275 279 271 255 236 214 221 219 209 199 204 197 188 175 161 154 159
181 236 188 152 165 199 227 203 228 265 328 340 317 299 280 277 275 287 277 270 282 275 278 283 287 283 277 269 270 268 261 248 229 216 199 132 110 113 180 190 192 182 168 169
220 254 167 172 214 185 241 221 205 242 324 302 1 299 290 296 313 308 296 296 290 294 295 295 291 291 280 264 263 265 261 253 237 202 187 176 191 205 214 200 198 191 183 174
234 214 169 208 227 174 215 121 152 185 181 300 288 249 284 323 303 294 291 288 287 293 291 292 286 275 280 278 267 262 265 260 250 223 202 194 206 210 203 182 188 184 192 186
236 231 191 200 222 151 141 61 52 58 80 272 232 204 279 262 256 291 299 303 300 304 305 305 306 310 311 319 308 284 276 271 258 242 233 204 204 197 185 196 194 188 192 201
314 299 285 125 77 54 90 91 30 355 340 251 223 217 254 256 252 273 292 303 312 318 319 319 321 318 318 313 309 305 281 274 259 237 234 222 212 200 198 202 197 189 189 213
181 265 232 178 162 181 190 150 162 205 236 277 275 236 255 272 292 295 301 308 328 332 328 322 315 310 311 304 297 303 287 271 261 244 238 228 214 202 206 204 194 194 198 204
178 241 295 253 166 141 145 171 157 136 167 272 264 276 295 297 332 344 346 348 337 331 328 324 324 322 319 314 305 295 287 286 268 257 254 235 217 203 197 194 191 192 188 190
157 218 276 296 69 31 143 145 116 135 182 262 283 267 259 293 314 332 337 331 323 329 329 330 329 327 324 320 313 312 295 282 282 264 252 251 236 213 188 171 180 197 188 179
138 151 292 1 191 185 130 135 136 143 177 188 267 268 232 243 270 288 299 306 310 314 318 322 325 327 329 332 329 320 316 310 309 286 263 254 251 225 179 172 178 183 162 166
147 131 216 247 256 204 173 175 156 170 226 205 220 266 275 244 275 280 294 308 314 313 313 316 321 330 339 337 332 326 316 306 299 296 278 255 247 196 159 166 175 167 157 161
144 132 97 341 329 8 211 196 181 141 137 182 207 263 315 331 324 311 303 306 311 313 314 319 325 329 331 330 329 327 322 309 306 306 287 261 235 184 171 174 168 157 150 154
124 144 185 209 222 185 222 225 189 154 184 219 230 259 287 300 305 307 301 296 299 294 298 310 315 317 320 323 326 326 325 318 307 305 283 233 216 192 178 163 147 145 145 149
123 182 224 259 249 198 225 226 205 204 207 214 241 245 263 272 275 281 284 294 301 297 299 301 302 308 316 323 327 327 323 323 316 304 298 262 207 155 140 131 129 133 138 141
125 162 172 280 256 227 256 241 220 225 227 236 257 266 263 271 276 278 278 282 289 291 291 294 297 303 307 312 316 322 324 320 323 317 292 269 127 120 125 132 126 129 135 133
153 145 153 256 289 353 262 227 203 207 211 201 228 247 268 278 274 268 271 272 274 280 283 283 281 279 285 292 301 306 309 318 329 330 330 344 135 141 152 151 135 148 155 149
154 141 148 195 73 235 248 198 192 207 233 217 234 256 252 253 269 269 254 253 267 275 279 279 277 280 284 288 300 306 317 327 330 328 326 331 12 177 164 149 170 180 161 173
166 149 143 156 226 272 284 235 182 197 257 223 228 251 264 282 314 287 257 247 251 259 269 270 268 271 281 291 300 317 329 336 333 323 317 314 294 236 201 184 221 214 171 204
95 129 143 159 199 243 256 245 183 131 274 240 208 232 245 121 298 278 287 283 279 282 282 279 280 283 283 292 302 312 308 310 303 302 306 312 308 267 242 235 242 253 197 217
121 137 179 196 229 260 255 227 124 172 249 253 202 217 207 208 229 259 292 297 290 290 289 285 279 278 275 282 282 281 295 290 293 302 311 316 313 282 242 233 242 210 193 190
173 172 188 173 214 250 204 147 186 222 258 238 231 226 225 239 258 271 282 287 297 305 306 299 292 292 292 286 267 274 281 290 305 307 309 309 310 300 276 186 236 223 177 188
199 192 187 197 218 247 186 204 228 231 249 258 251 254 243 254 265 272 278 284 291 287 289 288 275 291 297 288 263 265 284 299 306 305 303 305 310 307 273 217 209 217 208 211
241 202 196 248 260 260 252 254 258 246 247 263 262 260 245 249 262 268 271 277 282 284 280 276 276 283 291 295 289 274 289 297 290 291 297 301 307 314 315 288 233 217 214 221
214 176 208 255 273 291 270 246 247 253 258 269 271 253 241 244 260 260 264 265 264 275 276 262 256 267 279 292 295 295 292 282 277 278 284 295 299 298 304 295 265 250 240 227
200 190 198 234 229 219 251 255 245 245 254 256 260 269 262 239 251 260 260 259 259 267 271 267 262 265 276 285 289 294 289 265 256 275 277 272 275 282 284 293 314 294 264 265